• Em Portugal
  • Lista de países
  • Para 7 dias
  • Temperatura da água
  • Mapas de satélite
  • Mapa do tempo
  • Widgets de tempo
  • user-avatar
    Iniciar Sessão

    Previsão horária em Starosysoevka

    Hoje, 24 Setembro, Segunda-feira

    Tempo Temperatura Precipitação Vento Pressão Humidade
    00:00 +11°C° 0.1 mm 1 m/s 744 mmHg 96%
    01:00 +11°C° 0.1 mm 1 m/s 744 mmHg 96%
    02:00 +11°C° 0.1 mm 1 m/s 744 mmHg 97%
    03:00 +10°C° 0 mm 1 m/s 744 mmHg 97%
    04:00 +10°C° 0 mm 1 m/s 744 mmHg 97%
    05:00 +10°C° 0 mm 1 m/s 744 mmHg 97%
    06:00 +10°C° 0 mm 1 m/s 745 mmHg 97%
    07:00 +9°C° 0 mm 2 m/s 745 mmHg 94%
    08:00 +10°C° 0 mm 2 m/s 745 mmHg 90%
    09:00 +12°C° 0 mm 2 m/s 745 mmHg 87%
    10:00 +12°C° 0.1 mm 2 m/s 745 mmHg 80%
    11:00 +12°C° 0.1 mm 3 m/s 745 mmHg 74%
    12:00 +13°C° 0.1 mm 3 m/s 746 mmHg 67%
    13:00 +14°C° 0.1 mm 3 m/s 746 mmHg 63%
    14:00 +14°C° 0.1 mm 3 m/s 746 mmHg 59%
    15:00 +16°C° 0.1 mm 3 m/s 746 mmHg 55%
    16:00 +13°C° 0 mm 3 m/s 746 mmHg 63%
    17:00 +13°C° 0 mm 2 m/s 747 mmHg 71%
    18:00 +11°C° 0 mm 1 m/s 747 mmHg 79%
    19:00 +11°C° 0 mm 1 m/s 747 mmHg 83%
    20:00 +10°C° 0 mm 1 m/s 748 mmHg 87%
    21:00 +9°C° 0 mm 1 m/s 748 mmHg 90%
    22:00 +9°C° 0 mm 1 m/s 748 mmHg 91%
    23:00 +8°C° 0 mm 1 m/s 749 mmHg 93%

    Amanhã, 25 Setembro, Terça-feira

    Tempo Temperatura Precipitação Vento Pressão Humidade
    00:00 +8°C° 0 mm 1 m/s 749 mmHg 94%
    01:00 +8°C° 0 mm 1 m/s 749 mmHg 94%
    02:00 +8°C° 0 mm 1 m/s 749 mmHg 95%
    03:00 +7°C° 0 mm 1 m/s 749 mmHg 96%
    04:00 +7°C° 0 mm 1 m/s 750 mmHg 96%
    05:00 +7°C° 0 mm 1 m/s 750 mmHg 96%
    06:00 +7°C° 0 mm 1 m/s 750 mmHg 96%
    07:00 +9°C° 0 mm 1 m/s 750 mmHg 88%
    08:00 +11°C° 0 mm 1 m/s 750 mmHg 79%
    09:00 +13°C° 0 mm 1 m/s 750 mmHg 70%
    10:00 +14°C° 0 mm 2 m/s 750 mmHg 66%
    11:00 +15°C° 0 mm 2 m/s 750 mmHg 61%
    12:00 +17°C° 0 mm 3 m/s 750 mmHg 56%
    13:00 +17°C° 0 mm 3 m/s 750 mmHg 55%
    14:00 +17°C° 0 mm 3 m/s 749 mmHg 54%
    15:00 +17°C° 0 mm 2 m/s 749 mmHg 53%
    16:00 +16°C° 0 mm 2 m/s 749 mmHg 62%
    17:00 +14°C° 0 mm 1 m/s 750 mmHg 72%
    18:00 +12°C° 0 mm 1 m/s 750 mmHg 81%
    19:00 +11°C° 0 mm 1 m/s 750 mmHg 84%
    20:00 +11°C° 0 mm 1 m/s 751 mmHg 87%
    21:00 +10°C° 0 mm 1 m/s 751 mmHg 90%
    22:00 +9°C° 0 mm 1 m/s 751 mmHg 91%
    23:00 +9°C° 0 mm 1 m/s 751 mmHg 92%

    Depois de amanhã, 26 Setembro, Quarta-feira

    Tempo Temperatura Precipitação Vento Pressão Humidade
    00:00 +9°C° 0 mm 1 m/s 752 mmHg 92%
    01:00 +9°C° 0 mm 1 m/s 752 mmHg 93%
    02:00 +8°C° 0 mm 1 m/s 752 mmHg 93%
    03:00 +8°C° 0 mm 1 m/s 752 mmHg 93%
    04:00 +8°C° 0 mm 1 m/s 752 mmHg 94%
    05:00 +8°C° 0 mm 1 m/s 752 mmHg 94%
    06:00 +8°C° 0 mm 1 m/s 752 mmHg 94%
    07:00 +10°C° 0 mm 1 m/s 752 mmHg 85%
    08:00 +13°C° 0 mm 1 m/s 753 mmHg 77%
    09:00 +15°C° 0 mm 1 m/s 753 mmHg 68%
    10:00 +16°C° 0 mm 1 m/s 753 mmHg 64%
    11:00 +18°C° 0 mm 1 m/s 753 mmHg 59%
    12:00 +18°C° 0 mm 2 m/s 753 mmHg 55%
    13:00 +18°C° 0.1 mm 2 m/s 752 mmHg 55%
    14:00 +18°C° 0.1 mm 2 m/s 752 mmHg 56%
    15:00 +18°C° 0.1 mm 2 m/s 752 mmHg 56%
    16:00 +16°C° 0 mm 2 m/s 752 mmHg 65%
    17:00 +14°C° 0 mm 1 m/s 752 mmHg 74%
    18:00 +12°C° 0 mm 1 m/s 752 mmHg 84%
    19:00 +11°C° 0 mm 1 m/s 753 mmHg 86%
    20:00 +11°C° 0 mm 1 m/s 753 mmHg 88%
    21:00 +9°C° 0 mm 0 m/s 754 mmHg 90%
    22:00 +10°C° 0 mm 1 m/s 754 mmHg 91%
    23:00 +9°C° 0 mm 1 m/s 754 mmHg 92%

    27 Setembro, Quinta-feira

    Tempo Temperatura Precipitação Vento Pressão Humidade
    00:00 +9°C° 0 mm 1 m/s 754 mmHg 93%
    01:00 +9°C° 0 mm 1 m/s 754 mmHg 93%
    02:00 +8°C° 0 mm 1 m/s 754 mmHg 93%
    03:00 +8°C° 0 mm 1 m/s 754 mmHg 94%
    04:00 +8°C° 0 mm 1 m/s 754 mmHg 94%
    05:00 +8°C° 0 mm 1 m/s 754 mmHg 94%
    06:00 +7°C° 0 mm 1 m/s 754 mmHg 94%
    07:00 +10°C° 0 mm 1 m/s 754 mmHg 85%
    08:00 +12°C° 0 mm 0 m/s 754 mmHg 76%
    09:00 +15°C° 0 mm 0 m/s 754 mmHg 67%
    10:00 +16°C° 0 mm 0 m/s 754 mmHg 60%
    11:00 +20°C° 0 mm 1 m/s 754 mmHg 53%
    12:00 +21°C° 0 mm 1 m/s 753 mmHg 46%
    13:00 +21°C° 0 mm 1 m/s 753 mmHg 46%
    14:00 +21°C° 0 mm 1 m/s 753 mmHg 46%
    15:00 +20°C° 0 mm 1 m/s 753 mmHg 46%
    16:00 +18°C° 0 mm 1 m/s 753 mmHg 56%
    17:00 +15°C° 0 mm 1 m/s 753 mmHg 65%
    18:00 +13°C° 0 mm 1 m/s 753 mmHg 75%
    19:00 +12°C° 0 mm 1 m/s 753 mmHg 79%
    20:00 +11°C° 0 mm 1 m/s 753 mmHg 82%
    21:00 +10°C° 0 mm 1 m/s 753 mmHg 86%
    22:00 +10°C° 0 mm 1 m/s 753 mmHg 88%
    23:00 +9°C° 0 mm 1 m/s 753 mmHg 90%

    28 Setembro, Sexta-feira

    Tempo Temperatura Precipitação Vento Pressão Humidade
    00:00 +9°C° 0 mm 1 m/s 753 mmHg 91%
    01:00 +9°C° 0 mm 1 m/s 753 mmHg 92%
    02:00 +9°C° 0 mm 1 m/s 753 mmHg 93%
    03:00 +8°C° 0 mm 1 m/s 753 mmHg 94%
    04:00 +8°C° 0 mm 1 m/s 753 mmHg 94%
    05:00 +8°C° 0 mm 1 m/s 753 mmHg 94%
    06:00 +8°C° 0 mm 1 m/s 752 mmHg 94%
    07:00 +10°C° 0 mm 1 m/s 753 mmHg 85%
    08:00 +12°C° 0 mm 0 m/s 753 mmHg 76%
    09:00 +15°C° 0 mm 0 m/s 753 mmHg 67%
    10:00 +18°C° 0 mm 1 m/s 752 mmHg 61%
    11:00 +19°C° 0 mm 1 m/s 752 mmHg 56%
    12:00 +20°C° 0 mm 1 m/s 751 mmHg 50%
    13:00 +20°C° 0 mm 1 m/s 751 mmHg 50%
    14:00 +19°C° 0 mm 2 m/s 750 mmHg 50%
    15:00 +19°C° 0 mm 2 m/s 750 mmHg 50%
    16:00 +18°C° 0 mm 1 m/s 750 mmHg 59%
    17:00 +15°C° 0 mm 1 m/s 750 mmHg 69%
    18:00 +13°C° 0 mm 1 m/s 750 mmHg 78%
    19:00 +12°C° 0 mm 1 m/s 751 mmHg 80%
    20:00 +10°C° 0 mm 0 m/s 751 mmHg 83%
    21:00 +10°C° 0 mm 0 m/s 751 mmHg 85%
    22:00 +10°C° 0 mm 0 m/s 751 mmHg 86%
    23:00 +10°C° 0 mm 1 m/s 751 mmHg 86%

    29 Setembro, Sábado

    Tempo Temperatura Precipitação Vento Pressão Humidade
    00:00 +10°C° 0 mm 1 m/s 751 mmHg 87%
    01:00 +10°C° 0 mm 1 m/s 751 mmHg 88%
    02:00 +9°C° 0 mm 1 m/s 751 mmHg 90%
    03:00 +9°C° 0 mm 1 m/s 750 mmHg 91%
    04:00 +9°C° 0 mm 1 m/s 750 mmHg 91%
    05:00 +9°C° 0 mm 1 m/s 751 mmHg 92%
    06:00 +8°C° 0 mm 1 m/s 751 mmHg 92%
    07:00 +11°C° 0 mm 1 m/s 750 mmHg 82%
    08:00 +13°C° 0 mm 0 m/s 750 mmHg 73%
    09:00 +15°C° 0 mm 0 m/s 750 mmHg 63%
    10:00 +17°C° 0 mm 0 m/s 750 mmHg 58%
    11:00 +18°C° 0 mm 0 m/s 749 mmHg 53%
    12:00 +22°C° 0 mm 1 m/s 749 mmHg 49%
    13:00 +22°C° 0 mm 1 m/s 748 mmHg 49%
    14:00 +22°C° 0 mm 1 m/s 748 mmHg 50%
    15:00 +22°C° 0 mm 1 m/s 747 mmHg 51%
    16:00 +19°C° 0 mm 1 m/s 747 mmHg 60%
    17:00 +16°C° 0 mm 1 m/s 747 mmHg 69%
    18:00 +13°C° 0 mm 0 m/s 747 mmHg 78%
    19:00 +14°C° 0 mm 1 m/s 747 mmHg 81%
    20:00 +13°C° 0 mm 1 m/s 746 mmHg 85%
    21:00 +12°C° 0 mm 1 m/s 746 mmHg 88%
    22:00 +12°C° 0 mm 1 m/s 746 mmHg 90%
    23:00 +12°C° 0 mm 1 m/s 746 mmHg 92%
    Mostrar mais